EDT,Max TemperatureF,Mean TemperatureF,Min TemperatureF,Max Dew PointF,MeanDew PointF,Min DewpointF,Max Humidity, Mean Humidity, Min Humidity, Max Sea Level PressureIn, Mean Sea Level PressureIn, Min Sea Level PressureIn, Max VisibilityMiles, Mean VisibilityMiles, Min VisibilityMiles, Max Wind SpeedMPH, Mean Wind SpeedMPH, Max Gust SpeedMPH,PrecipitationIn, CloudCover, Events, WindDirDegrees
2011-10-1,47,45,43,45,41,37,100,88,76,30.00,29.93,29.85,10,7,2,17,5,26,0.57,8,Rain,285
2011-10-2,45,43,40,43,39,36,92,84,76,30.02,29.98,29.96,10,9,2,12,5,18,0.35,8,Rain,296
2011-10-3,49,45,40,48,44,37,100,97,93,30.17,30.05,29.99,10,4,0,10,4,10,0.33,8,Fog-Rain,218
2011-10-4,58,53,48,54,51,48,100,90,80,30.30,30.23,30.16,10,6,1,12,4,12,0.01,8,Rain,228
2011-10-5,70,61,52,55,52,50,100,77,53,30.35,30.31,30.26,10,7,4,7,2,10,0.00,5,,215
2011-10-6,74,64,54,55,50,46,96,73,49,30.38,30.34,30.32,10,6,2,5,1,,0.00,0,Fog,10
2011-10-7,78,63,48,57,50,46,100,68,35,30.45,30.39,30.36,10,4,0,8,2,13,0.00,0,Fog,35
2011-10-8,81,66,50,55,51,47,93,63,32,30.51,30.44,30.39,10,10,5,10,3,15,0.00,0,Fog,106
2011-10-9,81,66,50,57,52,47,93,64,35,30.48,30.40,30.35,10,10,7,7,1,9,0.00,0,Fog,13
2011-10-10,80,66,51,59,52,41,96,65,34,30.35,30.27,30.19,10,9,5,7,1,8,0.00,0,Fog,43
2011-10-11,75,63,50,55,51,47,89,66,43,30.18,30.11,30.05,10,10,10,10,2,15,0.00,2,,67
2011-10-12,63,61,58,61,57,53,100,86,72,30.04,29.88,29.82,10,7,1,12,3,18,0.36,8,Rain,97
2011-10-13,71,64,57,63,59,57,100,84,68,29.83,29.69,29.50,10,4,0,15,3,21,0.37,7,Fog-Rain-Thunderstorm,158
2011-10-14,62,57,51,58,53,42,90,71,51,29.70,29.53,29.46,10,8,1,18,7,32,0.26,7,Rain,213
2011-10-15,64,56,47,43,35,24,80,52,23,29.96,29.79,29.70,10,10,10,21,9,38,0.02,3,Rain,228
2011-10-16,71,59,47,50,39,34,65,49,33,30.03,29.88,29.70,10,10,10,18,8,25,T,4,,207
2011-10-17,66,57,47,52,42,27,93,60,26,29.93,29.87,29.81,10,8,2,14,6,21,0.35,4,Rain,240
2011-10-18,73,59,44,53,43,36,83,60,37,29.88,29.79,29.64,10,10,9,10,2,15,0.02,2,Rain,41
2011-10-19,69,59,48,56,52,48,93,76,59,29.61,29.39,29.19,10,10,4,20,8,31,0.13,6,Rain,159
2011-10-20,48,46,44,46,40,36,83,77,71,29.83,29.52,29.33,10,9,5,18,11,30,0.11,8,Rain,214
2011-10-21,48,46,43,41,39,37,89,80,71,30.16,30.03,29.83,10,10,10,15,5,23,T,8,,226
2011-10-22,60,51,41,40,38,35,82,61,40,30.17,30.13,30.09,10,10,10,10,2,15,0.00,4,,239
2011-10-23,61,48,35,42,37,34,92,66,39,30.16,30.12,30.07,10,9,5,9,1,13,0.00,1,,207
2011-10-24,61,53,45,50,45,40,100,76,51,30.18,30.10,30.03,10,6,0,10,3,17,0.15,6,Fog-Rain,199
2011-10-25,63,51,38,45,39,33,63,50,36,30.27,30.19,30.03,10,5,0,9,3,15,0.01,1,Fog,201
2011-10-26,62,57,51,56,48,34,93,67,40,30.01,29.90,29.80,10,8,2,14,6,21,0.40,6,Rain,204
2011-10-27,61,50,39,56,47,34,96,86,76,30.11,29.80,29.71,10,5,1,12,5,21,0.73,8,Rain,326
2011-10-28,45,38,31,35,32,23,100,71,41,30.23,30.18,30.13,10,7,0,15,4,20,0.09,5,Fog-Rain-Snow,42
2011-10-29,40,36,31,36,33,28,100,90,79,30.16,30.08,30.02,10,4,0,6,0,8,0.33,7,Fog-Rain-Snow,355
2011-10-30,51,41,30,39,33,28,100,75,50,30.34,30.24,30.13,10,4,0,8,1,10,0.00,5,Fog,255
2011-10-31,53,46,39,41,34,30,89,67,44,30.26,30.22,30.16,10,10,6,12,4,16,0.03,4,Rain,176